This is the latest recevied weather packets stored in our database for station/object EA5AER-5. If no packets are shown the sender has not sent any weather packets the latest 10 day(s).
| Time | Temp. | Humidity | Pressure | Rain* | Wind** | Luminosity | Snow |
|---|---|---|---|---|---|---|---|
| 1777315312 | 18.89° C | 68% | 1014.2 hPa | 0 mm | - | 19 W/m² | - |
| 1777314000 | 18.89° C | 61% | 1014 hPa | 0 mm | - | 146 W/m² | - |
| 1777312876 | 18.89° C | 61% | 1014 hPa | 0 mm | - | 146 W/m² | - |
| 1777311590 | 18.89° C | 61% | 1014 hPa | 0 mm | - | 146 W/m² | - |
| 1777310445 | 18.89° C | 66% | 1014.1 hPa | 0 mm | - | 221 W/m² | - |
| 1777309197 | 18.89° C | 65% | 1014.3 hPa | 0 mm | - | 234 W/m² | - |
| 1777308053 | 18.89° C | 65% | 1014.3 hPa | 0 mm | - | 234 W/m² | - |
| 1777306774 | 18.89° C | 65% | 1014.7 hPa | 0 mm | - | 455 W/m² | - |
| 1777305522 | 18.89° C | 65% | 1014.7 hPa | 0 mm | - | 455 W/m² | - |
| 1777304385 | 18.89° C | 65% | 1014.7 hPa | 0 mm | - | 455 W/m² | - |
| 1777303045 | 18.89° C | 67% | 1014.9 hPa | 0 mm | - | 610 W/m² | - |
| 1777301929 | 18.89° C | 64% | 1015.1 hPa | 0 mm | - | 649 W/m² | - |
| 1777300691 | 18.33° C | 57% | 1015.2 hPa | 0 mm | - | 686 W/m² | - |
| 1777299460 | 18.89° C | 59% | 1015.8 hPa | 0 mm | - | 777 W/m² | - |
| 1777298285 | 18.89° C | 59% | 1015.8 hPa | 0 mm | - | 777 W/m² | - |
| 1777297089 | 18.33° C | 57% | 1015.9 hPa | 0 mm | - | 798 W/m² | - |
| 1777295864 | 18.33° C | 60% | 1016.5 hPa | 0 mm | - | 868 W/m² | - |
| 1777293997 | 18.33° C | 60% | 1016.5 hPa | 0 mm | - | 868 W/m² | - |
| 1777292907 | 18.33° C | 60% | 1016.5 hPa | 0 mm | - | 868 W/m² | - |
| 1777291684 | 18.33° C | 63% | 1016.8 hPa | 0 mm | - | 881 W/m² | - |
| 1777290512 | 18.33° C | 63% | 1016.8 hPa | 0 mm | - | 881 W/m² | - |
| 1777289274 | 18.33° C | 61% | 1016.9 hPa | 0 mm | - | 868 W/m² | - |
| 1777287992 | 18.33° C | 64% | 1017.1 hPa | 0 mm | - | 854 W/m² | - |
| 1777286724 | 18.33° C | 62% | 1017.1 hPa | 0 mm | - | 824 W/m² | - |
| 1777285565 | 18.33° C | 62% | 1017.1 hPa | 0 mm | - | 824 W/m² | - |
* Rain latest hour (hover to see other rain measurements)
** Current wind speed in m/s (hover to see current wind gust speed)